Location: Kalberh�ni
(46.4610°N, 7.2453°E)
Time: 08:47:47
(UTC+00:00)

Cosmos 1455 - Pass Details

Date: 28 October 2021
Orbit: 496 x 520 km, 82.5° (Epoch: 27 November)

Event Time Altitude Azimuth Distance (km) Brightness Sun altitude
Rises 04:20:29 0° 2° (N) 2,599 5.8 -18.8°
Reaches altitude 10° 04:22:55 10° 17° (NNE) 1,708 5.0 -18.4°
Maximum altitude 04:25:59 23° 72° (ENE) 1,083 4.6 -17.9°
Drops below altitude 10° 04:29:01 10° 127° (SE) 1,695 5.6 -17.4°
Sets 04:31:25 0° 142° (SE) 2,572 6.3 -17.0°
